Louisa, VA

5:41 PM EDT on April 19, 2018 (GMT -0400)
Louisa County-Freeman

Weather History for KLKU - June, 2013

Change the Weather History Date:

Thursday, June 13, 2013

  Actual Average (KOMH) Record (KOMH)
Temperature  
Mean Temperature 79 °F -  
Max Temperature 89 °F 83 °F 97 °F (1954)
Min Temperature 69 °F 61 °F 47 °F (1980)
Cooling Degree Days 14    
Growing Degree Days 29 (Base 50)    
Moisture  
Dew Point 70 °F    
Average Humidity 81    
Maximum Humidity 94    
Minimum Humidity 51    
Precipitation  
Precipitation 0.23 in - - ()
Sea Level Pressure  
Sea Level Pressure 29.66 in    
Wind  
Wind Speed 4 mph (WSW)    
Max Wind Speed 15 mph    
Max Gust Speed 23 mph    
Visibility 9 miles    
Events Rain    
Averages and records for this station are not official NWS values.
T = Trace of Precipitation, MM = Missing Value Source: NWS Daily Summary

Daily Weather History Graph

Daily Weather History Graph

Search for Another Location

Airport or City:

Astronomy

Jun. 13, 2013 Rise Set
Actual Time 5:48 AM EDT 8:35 PM EDT
Civil Twilight 5:17 AM EDT 9:06 PM EDT
Nautical Twilight 4:37 AM EDT 9:46 PM EDT
Astronomical Twilight 3:53 AM EDT 10:30 PM EDT
Moon 10:19 AM EDT (6/13) 11:45 PM EDT (6/13)
Length of Visible Light 15h 49m
Length of Day
14h 46m
Waxing Crescent, 21% of the Moon is Illuminated
Jun 13
Waxing Crescent
Jun 16
First Quarter
Jun 23
Full
Jun 30
Last Quarter
Jul 8
New

Hourly Weather History & Observations

Time (EDT) Temp. Heat Index Dew Point Humidity Pressure Visibility Wind Dir Wind Speed Gust Speed Precip Events Conditions
12:15 AM 77.0 °F - 73.4 °F 89% 29.81 in 7.0 mi Calm Calm - N/A   Clear
12:35 AM 77.0 °F - 73.4 °F 89% 29.81 in 10.0 mi Calm Calm - N/A   Clear
12:55 AM 77.0 °F - 73.4 °F 89% 29.81 in 10.0 mi WSW 3.5 mph - N/A   Clear
1:15 AM 77.0 °F - 73.4 °F 89% 29.80 in 7.0 mi SW 3.5 mph - N/A   Clear
1:35 AM 77.0 °F - 73.4 °F 89% 29.79 in 7.0 mi SW 4.6 mph - N/A   Clear
1:55 AM 77.0 °F - 73.4 °F 89% 29.79 in 7.0 mi SW 3.5 mph - N/A   Clear
2:15 AM 77.0 °F - 73.4 °F 89% 29.78 in 7.0 mi WSW 3.5 mph - N/A   Clear
2:35 AM 77.0 °F - 73.4 °F 89% 29.78 in 7.0 mi SW 3.5 mph - N/A   Clear
2:55 AM 77.0 °F - 73.4 °F 89% 29.77 in 7.0 mi SW 4.6 mph - N/A   Clear
3:15 AM 75.2 °F - 73.4 °F 94% 29.77 in 7.0 mi SW 3.5 mph - N/A   Clear
3:35 AM 75.2 °F - 73.4 °F 94% 29.76 in 7.0 mi SSW 4.6 mph - N/A   Clear
3:55 AM 75.2 °F - 73.4 °F 94% 29.76 in 7.0 mi Calm Calm - N/A   Clear
4:15 AM 77.0 °F - 73.4 °F 89% 29.75 in 10.0 mi Calm Calm - N/A   Clear
4:35 AM 77.0 °F - 73.4 °F 89% 29.73 in 10.0 mi SW 3.5 mph - N/A   Clear
4:55 AM 75.2 °F - 73.4 °F 94% 29.72 in 7.0 mi Calm Calm - N/A   Clear
5:15 AM 75.2 °F - 73.4 °F 94% 29.72 in 7.0 mi Calm Calm - N/A   Clear
5:35 AM 75.2 °F - 71.6 °F 89% 29.72 in 7.0 mi Calm Calm - N/A   Clear
5:55 AM 75.2 °F - 71.6 °F 89% 29.71 in 5.0 mi SW 3.5 mph - N/A   Clear
6:15 AM 75.2 °F - 71.6 °F 89% 29.71 in 5.0 mi Calm Calm - N/A   Clear
6:35 AM 75.2 °F - 71.6 °F 89% 29.70 in 5.0 mi Calm Calm - N/A   Clear
6:55 AM 75.2 °F - 71.6 °F 89% 29.70 in 7.0 mi SW 3.5 mph - N/A   Clear
7:15 AM 75.2 °F - 71.6 °F 89% 29.70 in 7.0 mi SSW 4.6 mph - N/A   Clear
7:35 AM 75.2 °F - 71.6 °F 89% 29.70 in 10.0 mi SW 4.6 mph - N/A   Clear
7:55 AM 77.0 °F - 71.6 °F 83% 29.70 in 10.0 mi SW 4.6 mph - N/A   Clear
8:15 AM 78.8 °F - 71.6 °F 78% 29.69 in 10.0 mi SW 3.5 mph - N/A   Clear
8:35 AM 78.8 °F - 73.4 °F 83% 29.70 in 10.0 mi SSW 4.6 mph - N/A   Clear
8:55 AM 80.6 °F 85.4 °F 73.4 °F 79% 29.70 in 10.0 mi Calm Calm - N/A   Clear
9:15 AM 80.6 °F 85.4 °F 73.4 °F 79% 29.70 in 10.0 mi SSW 5.8 mph - N/A   Clear
9:35 AM 82.4 °F 88.2 °F 73.4 °F 74% 29.70 in 10.0 mi SW 8.1 mph - N/A   Clear
9:55 AM 82.4 °F 88.2 °F 73.4 °F 74% 29.71 in 10.0 mi West 6.9 mph - N/A   Scattered Clouds
10:15 AM 82.4 °F 88.2 °F 73.4 °F 74% 29.73 in 10.0 mi WNW 8.1 mph - N/A   Mostly Cloudy
10:35 AM 84.2 °F 88.4 °F 69.8 °F 62% 29.70 in 10.0 mi NW 4.6 mph - N/A   Scattered Clouds
10:55 AM 84.2 °F 89.6 °F 71.6 °F 66% 29.66 in 10.0 mi SSW 5.8 mph - N/A   Clear
11:15 AM 86.0 °F 89.4 °F 68.0 °F 55% 29.66 in 10.0 mi SW 6.9 mph - N/A   Clear
11:35 AM 86.0 °F 88.2 °F 66.2 °F 51% 29.63 in 10.0 mi SW 4.6 mph - N/A   Clear
11:55 AM 84.2 °F 86.6 °F 66.2 °F 55% 29.62 in 10.0 mi South 8.1 mph - N/A   Clear
12:15 PM 86.0 °F 90.4 °F 69.8 °F 58% 29.62 in 10.0 mi SSW 5.8 mph - N/A   Clear
12:35 PM 87.8 °F 93.8 °F 71.6 °F 58% 29.62 in 10.0 mi SSW 6.9 mph - N/A   Clear
12:55 PM 87.8 °F 93.8 °F 71.6 °F 58% 29.62 in 10.0 mi SSW 8.1 mph - N/A   Clear
1:15 PM 89.6 °F 96.2 °F 71.6 °F 55% 29.60 in 10.0 mi SW 5.8 mph 9.2 mph N/A   Clear
1:35 PM 89.6 °F 98.2 °F 73.4 °F 59% 29.58 in 10.0 mi SSW 6.9 mph - N/A   Scattered Clouds
1:55 PM 84.2 °F 92.3 °F 75.2 °F 74% 29.53 in 3.0 mi SE 8.1 mph - 0.07 in Rain Heavy Rain
2:15 PM 84.2 °F 92.3 °F 75.2 °F 74% 29.55 in 10.0 mi SSW 6.9 mph - N/A Rain Light Rain
2:35 PM 75.2 °F - 69.8 °F 83% 29.58 in 7.0 mi SW 8.1 mph 11.5 mph N/A Rain Rain
2:55 PM 75.2 °F - 69.8 °F 83% 29.57 in 10.0 mi WSW 5.8 mph - 0.03 in Rain Light Rain
3:15 PM 75.2 °F - 69.8 °F 83% 29.55 in 10.0 mi West 6.9 mph - N/A   Scattered Clouds
3:35 PM 75.2 °F - 69.8 °F 83% 29.57 in 10.0 mi West 9.2 mph - N/A   Scattered Clouds
3:55 PM 73.4 °F - 69.8 °F 88% 29.58 in 10.0 mi West 15.0 mph 20.7 mph 0.03 in Rain Light Rain
4:15 PM 73.4 °F - 69.8 °F 88% 29.57 in 10.0 mi West 11.5 mph 21.9 mph 0.06 in Rain Rain
4:35 PM 73.4 °F - 69.8 °F 88% 29.58 in 10.0 mi WSW 8.1 mph - 0.08 in Rain Rain
4:55 PM 71.6 °F - 69.8 °F 94% 29.55 in 10.0 mi Calm Calm - 0.10 in Rain Light Rain
5:15 PM 71.6 °F - 69.8 °F 94% 29.55 in 10.0 mi SSW 3.5 mph - N/A   Light Drizzle
5:35 PM 73.4 °F - 71.6 °F 94% 29.54 in 10.0 mi SW 3.5 mph - N/A   Clear
5:55 PM 73.4 °F - 69.8 °F 88% 29.55 in 10.0 mi WSW 5.8 mph - N/A   Clear
6:15 PM 75.2 °F - 71.6 °F 89% 29.56 in 10.0 mi WSW 6.9 mph - N/A   Scattered Clouds
6:35 PM 73.4 °F - 69.8 °F 88% 29.57 in 10.0 mi WSW 10.4 mph 16.1 mph N/A   Scattered Clouds
6:55 PM 73.4 °F - 69.8 °F 88% 29.57 in 10.0 mi WSW 5.8 mph - N/A   Scattered Clouds
7:15 PM 73.4 °F - 69.8 °F 88% 29.57 in 10.0 mi WSW 5.8 mph - N/A   Clear
7:35 PM 73.4 °F - 69.8 °F 88% 29.58 in 10.0 mi WSW 4.6 mph - N/A   Clear
7:55 PM 73.4 °F - 69.8 °F 88% 29.59 in 10.0 mi WSW 4.6 mph - N/A   Clear
8:15 PM 73.4 °F - 69.8 °F 88% 29.61 in 10.0 mi West 4.6 mph - N/A   Clear
8:35 PM 71.6 °F - 69.8 °F 94% 29.61 in 10.0 mi Calm Calm - N/A   Scattered Clouds
8:55 PM 71.6 °F - 69.8 °F 94% 29.61 in 10.0 mi West 4.6 mph - N/A   Mostly Cloudy
9:15 PM 73.4 °F - 66.2 °F 78% 29.63 in 10.0 mi WNW 12.7 mph 17.3 mph N/A   Overcast
9:35 PM 71.6 °F - 64.4 °F 78% 29.63 in 10.0 mi WNW 10.4 mph - N/A   Scattered Clouds
9:55 PM 71.6 °F - 62.6 °F 73% 29.64 in 10.0 mi WNW 13.8 mph 20.7 mph N/A   Clear
10:15 PM 71.6 °F - 60.8 °F 69% 29.65 in 10.0 mi WNW 13.8 mph 23.0 mph N/A   Clear
10:35 PM 71.6 °F - 57.2 °F 60% 29.66 in 10.0 mi NW 9.2 mph - N/A   Clear
10:55 PM 69.8 °F - 57.2 °F 64% 29.65 in 10.0 mi WNW 11.5 mph 16.1 mph N/A   Clear
11:15 PM 69.8 °F - 57.2 °F 64% 29.65 in 10.0 mi WNW 6.9 mph 16.1 mph N/A   Clear
11:35 PM 69.8 °F - 57.2 °F 64% 29.65 in 10.0 mi WNW 11.5 mph 16.1 mph N/A   Clear
11:55 PM 69.8 °F - 57.2 °F 64% 29.65 in 10.0 mi WNW 9.2 mph 17.3 mph N/A   Clear